SCP
0 0 0 0 0 0 0 0 0 0 0 0 0 0 0 0 0 0 0 0 0 0 0 0 0 0 0 0 0 0 0 0 0 0 0 0 0 0 0 0 0 0 0
0 0 0 0 0 0 0 0 0 0 0 0 0 0 0 0 0 0 0 0 0 0 0 0 0 0 0 0 0 0 0 0 0 0 0 0 0 0 0 0 0 0 0
0 0 0 0 0 0 0 0 0 0 0 0 0 0 0 0 0 0 0 0 0 0 0 0 0 0 0 0 0 0 0 0 0 0 0 0 0 0 0 0 0 0 0
0 0 0 0 0 0 0 0 0 0 0 0 0 0 0 0 0 0 0 0 0 0 0 0 0 0 0 0 0 0 0 0 0 0 0 0 0 0 0 0 0 0 0
0 0 0 0 0 0 0 0 0 0 0 0 0 0 0 0 0 0 0 0 0 0 0 0 0 0 0 0 0 0 0 0 0 0 0 0 0 0 0 0 0 0 0
0 0 0 0 0 0 0 0 0 0 0 0 0 0 0 0 0 0 0 0 0 0 0 0 0 0 0 0 0 0 0 0 0 0 0 0 0 0 0 0 0 0 0
0 0 0 0 0 0 0 0 0 0 0 0 0 0 0 0 0 0 0 0 0 0 0 0 0 0 0 0 0 0 0 0 0 0 0 0 0 0 0 0 0 0 0
0 0 0 0 0 0 0 0 0 0 0 0 0 0 0 0 0 0 0 0 0 0 0 0 0 0 0 0 0 0 0 0 0 0 0 0 0 0 0 0 0 0 0
0 0 0 0 0 0 0 0 0 0 0 0 0 0 0 0 0 0 0 0 0 0 0 0 0 0 0 0 0 0 0 0 0 0 0 0 0 0 0 0 0 0 0
0 0 0 0 0 0 0 0 0 0 0 0 0 0 0 0 0 0 0 0 0 0 0 0 0 0 0 0 0 0 0 0 0 0 0 0 0 0 0 0 0 0 0
0 0 0 0 0 0 0 0 0 0 0 0 0 0 0 0 0 0 0 0 0 0 0 0 0 0 0 0 0 0 0 0 0 0 0 0 0 0 0 0 0 0 0
0 0 0 0 0 0 0 0 0 0 0 0 0 0 0 0 0 0 0 0 0 0 0 0 0 0 0 0 0 0 0 0 0 0 0 0 0 0 0 0 0 0 0
0 0 0 0 0 0 0 0 0 0 0 0 0 0 0 0 0 0 0 0 0 0 0 0 0 0 0 0 0 0 0 0 0 0 0 0 0 0 0 0 0 0 0
0 0 0 0 0 0 0 0 0 0 0 0 0 0 0 0 0 0 0 0 0 0 0 0 0 0 0 0 0 0 0 0 0 0 0 0 0 0 0 0 0 0 0
0 0 0 0 0 0 0 0 0 0 0 0 0 0 0 0 0 0 0 0 0 0 0 0 0 0 0 0 0 0 0 0 0 0 0 0 0 0 0 0 0 0 0
0 0 0 0 0 0 0 0 0 0 0 0 0 0 0 0 0 0 0 0 0 0 0 0 0 0 0 0 0 0 0 0 0 0 0 0 0 0 0 0 0 0 0
0 0 0 0 0 0 0 0 0 0 0 0 0 0 0 0 0 0 0 0 0 0 0 0 0 0 0 0 0 0 0 0 0 0 0 0 0 0 0 0 0 0 0
0 0 0 0 0 0 0 0 0 0 0 0 0 0 0 0 0 0 0 0 0 0 0 0 0 0 0 0 0 0 0 0 0 0 0 0 0 0 0 0 0 0 0
0 0 0 0 0 0 0 0 0 0 0 0 0 0 0 0 0 0 0 0 0 0 0 0 0 0 0 0 0 0 0 0 0 0 0 0 0 0 0 0 0 0 0
0 0 0 0 0 0 0 0 0 0 0 0 0 0 0 0 0 0 0 0 0 0 0 0 0 0 0 0 0 0 0 0 0 0 0 0 0 0 0 0 0 0 0
0 0 0 0 0 0 0 0 0 0 0 0 0 0 0 0 0 0 0 0 0 0 0 0 0 0 0 0 0 0 0 0 0 0 0 0 0 0 0 0 0 0 0
0 0 0 0 0 0 0 0 0 0 0 0 0 0 0 0 0 0 0 0 0 0 0 0 0 0 0 0 0 0 0 0 0 0 0 0 0 0 0 0 0 0 0
0 0 0 0 0 0 0 0 0 0 0 0 0 0 0 0 0 0 0 0 0 0 0 0 0 0 0 0 0 0 0 0 0 0 0 0 0 0 0 0 0 0 0
0 0 0 0 0 0 0 0 0 0 0 0 0 0 0 0 0 0 0 0 0 0 0 0 0 0 0 0 0 0 0 0 0 0 0 0 0 0 0 0 0 0 0
0 0 0 0 0 0 0 0 0 0 0 0 0 0 0 0 0 0 0 0 0 0 0 0 0 0 0 0 0 0 0 0 0 0 0 0 0 0 0 0 0 0 0
0 0 0 0 0 0 0 0 0 0 0 0 0 0 0 0 0 0 0 0 0 0 0 0 0 0 0 0 0 0 0 0 0 0 0 0 0 0 0 0 0 0 0
Wind_Speed
4 7 10 9 10 11 11 10 10 11 10 11 11 11 12 12 12 12 13 13 12 12 11 11 11 10 10 10 9 9 9 9 9 10 10 11 10 10 10 10 9 9 11
6 9 11 9 10 10 10 10 10 10 10 11 11 11 12 12 12 12 12 12 12 11 11 10 10 10 10 9 9 8 8 8 8 9 9 10 10 9 9 8 5 7 10
6 8 10 9 9 9 9 10 10 10 10 11 11 11 11 12 12 11 11 11 11 10 10 10 10 9 9 8 8 7 7 6 7 8 7 6 8 9 8 8 9 9 9
6 7 9 10 9 9 9 9 9 10 10 10 11 11 11 11 11 11 11 10 10 10 10 10 9 9 8 8 7 7 6 6 7 7 5 4 6 9 8 8 9 9 9
6 7 10 9 8 8 9 9 9 10 10 10 11 11 11 11 11 10 10 10 9 10 9 9 9 8 8 7 7 6 6 6 6 5 4 4 4 8 8 8 8 8 8
6 7 10 8 8 8 8 9 9 9 9 10 10 10 10 10 10 10 10 9 9 9 8 8 8 8 7 7 7 6 5 4 5 4 4 4 5 7 7 7 7 8 8
6 6 9 9 7 7 8 8 8 9 9 9 9 9 9 9 9 9 9 8 8 8 7 7 7 7 6 6 6 5 4 2 2 4 4 3 5 6 6 7 6 7 7
6 6 8 10 8 7 7 7 8 8 8 8 8 8 8 9 8 8 8 8 7 7 7 7 6 6 6 6 5 4 2 3 2 3 3 4 6 5 5 6 6 7 7
6 6 6 8 9 9 8 7 8 8 8 7 7 8 8 9 8 8 7 6 6 6 6 6 6 5 5 5 4 3 1 3 1 2 3 4 7 6 5 6 6 7 7
6 6 6 7 7 7 9 9 8 8 8 7 7 7 8 8 9 8 7 7 6 6 6 5 5 5 4 4 4 3 2 4 1 3 2 5 6 5 5 5 6 6 6
5 5 5 6 7 6 7 9 9 9 8 7 7 7 6 5 6 7 8 7 5 5 5 5 4 4 4 6 5 3 4 1 3 2 3 7 4 5 5 5 5 5 6
5 6 6 6 7 6 6 6 4 5 6 4 4 4 3 3 3 4 8 6 5 5 5 4 4 5 5 4 6 5 1 2 2 2 5 5 3 3 4 5 5 5 5
6 6 6 6 6 5 5 4 3 3 3 4 4 3 3 2 3 3 3 5 5 6 4 6 5 2 2 2 1 1 1 1 1 2 6 5 3 2 3 4 4 5 5
6 6 6 6 6 5 4 4 3 3 3 3 4 2 2 2 2 3 2 2 2 2 2 2 1 2 1 2 1 2 2 1 2 2 5 5 3 2 2 3 4 4 5
6 6 6 5 6 5 4 2 3 3 3 4 3 3 2 2 2 2 2 1 1 2 2 1 1 2 1 2 2 2 2 3 2 2 4 6 3 2 2 2 3 4 4
6 6 6 5 6 4 4 3 3 3 3 3 3 3 2 2 3 2 2 2 2 2 2 1 2 2 1 2 2 2 2 2 2 1 2 5 5 3 2 2 2 2 3
6 6 5 5 5 4 4 3 3 2 3 3 3 3 2 2 2 1 2 2 2 2 2 1 2 1 2 2 2 2 2 1 2 2 1 1 3 6 4 3 2 2 2
6 6 5 4 6 5 3 2 2 2 3 2 2 3 3 3 2 1 1 2 1 1 1 1 1 1 2 1 2 1 2 2 2 1 1 1 1 3 6 5 3 2 2
5 6 6 5 4 4 4 3 2 2 2 2 2 2 3 2 2 1 1 2 1 1 1 1 3 1 2 2 2 2 1 1 1 2 2 2 2 2 3 6 5 3 2
6 6 6 5 4 4 4 3 2 2 2 2 2 2 2 2 2 0 1 2 0 1 1 1 1 1 1 0 1 2 1 1 1 2 0 1 2 2 2 2 3 5 4
7 7 6 5 5 4 3 2 3 3 2 2 2 2 2 1 1 0 1 1 0 1 1 0 0 2 1 1 1 1 2 2 1 1 0 1 1 1 1 1 0 0 3
8 8 7 7 6 5 4 2 2 1 2 2 2 2 1 1 0 1 0 1 0 1 1 1 0 0 1 1 1 1 2 3 2 2 1 1 0 0 1 1 1 0 2
9 9 7 7 6 6 5 4 3 3 3 3 3 3 2 2 1 1 0 1 0 1 1 1 1 1 1 1 1 3 2 1 1 2 1 1 1 1 1 1 0 0 1
10 9 8 8 7 6 6 5 5 4 3 3 2 2 2 2 2 1 1 0 1 1 1 2 1 1 2 1 1 1 3 3 2 0 2 2 1 0 1 2 1 1 0
9 9 9 8 7 7 6 6 6 4 3 3 3 3 2 2 2 1 1 1 1 1 0 1 0 2 1 2 1 0 0 1 3 2 1 1 1 0 0 1 1 1 0
9 9 9 9 8 8 7 7 6 5 4 3 3 3 4 3 3 3 2 1 2 1 1 1 1 1 1 2 2 2 1 1 2 2 2 2 1 0 0 1 1 1 1
Wind_Direction
96 91 94 96 98 103 106 108 107 104 105 106 113 115 115 114 113 112 111 112 115 117 116 115 115 115 115 115 116 118 119 121 124 128 132 133 134 136 139 145 154 132 127
93 94 99 99 102 105 107 108 106 106 108 108 110 118 116 115 114 112 112 112 114 116 115 114 113 112 113 114 116 117 120 121 126 132 138 141 141 142 145 147 131 118 138
94 101 110 103 105 106 109 109 107 109 111 110 109 116 115 115 114 113 113 111 113 114 113 113 111 112 112 113 114 116 118 123 135 143 160 150 136 141 146 144 134 139 145
96 100 97 103 105 108 110 109 110 111 111 112 110 111 113 116 116 115 114 115 113 113 112 111 111 112 111 110 108 109 108 114 143 168 169 139 137 134 145 144 146 146 147
95 97 101 107 108 109 111 110 111 111 110 112 112 111 111 113 117 118 118 118 116 115 112 111 111 112 112 108 104 103 105 108 140 185 137 138 126 129 147 150 151 154 154
110 105 103 107 109 106 107 108 111 111 109 114 116 113 112 113 115 120 118 119 118 116 114 111 111 109 111 111 110 112 120 138 179 143 137 148 131 134 147 154 158 160 161
101 99 108 108 108 105 108 110 113 113 111 111 114 115 114 112 113 115 117 117 117 116 112 109 108 108 108 109 111 116 129 190 204 124 136 129 118 134 149 155 159 161 163
101 104 112 119 114 113 116 115 113 112 110 108 108 109 114 117 119 117 116 120 120 118 114 111 105 103 103 104 107 114 132 262 159 121 126 116 117 144 151 155 159 161 166
107 114 120 128 130 133 125 116 116 113 109 107 107 109 116 121 123 122 120 118 121 119 115 111 105 100 102 107 108 113 121 290 256 118 122 117 132 151 159 158 164 164 168
105 111 121 122 123 134 132 122 120 117 113 113 112 112 122 135 138 144 141 119 120 117 113 111 111 105 105 116 120 125 195 243 147 113 106 107 132 156 161 158 165 168 174
98 109 116 120 124 127 123 122 133 132 127 139 132 135 160 141 135 148 110 119 124 123 118 117 125 134 146 143 141 179 231 208 92 84 86 97 136 156 156 152 162 173 180
110 115 113 115 115 117 113 119 128 128 126 125 106 123 124 116 120 119 128 140 140 141 145 143 157 184 208 149 152 195 199 103 92 93 90 103 128 147 154 162 169 174 181
111 103 105 107 114 113 113 122 112 111 117 121 113 117 107 126 136 142 139 152 157 170 158 155 182 169 125 96 96 103 59 73 80 86 98 107 114 138 159 170 177 179 180
107 102 101 105 104 96 92 105 121 117 116 109 112 111 107 106 115 111 124 116 152 123 114 133 137 103 81 95 96 64 63 46 57 65 96 105 114 140 163 176 178 182 186
116 114 109 107 104 107 105 110 110 102 95 101 103 102 96 110 104 104 101 103 103 109 134 124 90 94 104 109 85 71 52 54 47 47 102 112 114 121 155 173 177 188 192
127 120 117 122 114 112 114 109 99 98 103 98 100 92 81 85 93 109 122 106 93 83 70 85 97 115 96 88 84 74 50 52 72 39 92 126 129 122 123 141 158 173 181
138 131 134 134 125 124 122 123 111 109 108 101 93 90 86 90 99 113 110 119 90 96 114 120 106 109 115 112 102 97 91 55 74 71 53 67 134 134 128 128 131 147 160
141 139 146 141 130 131 127 116 115 109 103 104 104 107 98 92 106 119 109 95 102 120 118 109 94 84 83 88 94 78 85 92 77 82 88 82 75 110 132 129 127 128 149
151 151 153 142 141 139 135 144 137 119 115 118 118 105 100 106 111 114 82 78 134 92 69 42 80 48 75 71 108 108 89 85 87 92 79 82 91 90 110 133 140 131 136
157 161 161 157 151 154 152 153 149 133 135 129 117 104 111 116 111 110 124 96 45 89 77 61 79 74 69 51 56 79 79 84 93 91 128 108 92 84 77 100 154 158 163
166 168 170 169 159 168 165 176 160 152 151 148 146 117 126 102 93 336 53 109 273 83 32 78 53 137 119 88 185 160 143 138 86 107 91 52 97 86 84 81 12 356 164
176 177 178 178 173 181 166 177 177 153 167 152 139 128 159 140 183 175 79 219 121 136 145 136 196 293 119 146 291 259 176 157 150 90 112 139 94 120 127 114 88 345 305
183 184 184 184 179 186 181 182 171 168 185 168 166 167 173 179 190 344 257 295 284 252 124 181 208 221 220 187 297 308 311 32 116 134 118 74 21 353 324 31 170 175 250
186 181 182 182 185 187 191 196 193 192 188 176 183 160 173 189 196 205 226 258 288 296 128 228 126 243 247 237 166 300 326 351 310 161 170 138 141 251 346 317 318 168 212
186 182 180 180 185 189 195 196 206 207 195 184 181 160 202 179 200 215 202 238 254 260 36 332 85 274 263 295 290 241 237 224 264 287 310 278 170 150 245 278 317 316 347
183 184 182 179 185 189 194 197 205 205 202 195 196 182 197 184 187 190 201 221 239 252 207 248 255 215 289 313 304 302 283 286 279 285 273 266 315 339 335 346 283 288 288